Regional Weather Roundup
Issued by NWS

Home | Current Version | Previous Version | Text Only | Print | Product List | Glossary On
Versions: 1 2 3 4 5 6 7 8 9 10 11 12 13 14 15 16 17 18 19 20 21 22 23 24 25 26 27 28 29 30 31 32 33 34 35 36 37 38 39 40 41 42 43 44 45 46 47 48 49 50
647
ASUS44 KJAN 291010
RWRMS

MISSISSIPPI HOURLY WEATHER ROUNDUP
NATIONAL WEATHER SERVICE JACKSON MS
400 AM CST THU JAN 29 2015

NOTE: "FAIR: INDICATES FEW OR NO CLOUDS BELOW 12,000 FEET WITH NO
SIGNIFICANT WEATHER AND/OR OBSTRUCTIONS TO VISIBILITY.

MSZ001>002-007>008-010>013-018>021-025>028-034>036-291100-
NORTHWEST MISSISSIPPI

CITY           SKY/WX    TMP DP  RH WIND       PRES   REMARKS
CLARKSDALE     CLOUDY    54  41  62 S15       30.07F
CLEVELAND      PTSUNNY   51  45  78 S12       30.09S
GREENWOOD      MOCLDY    53  37  54 S10       30.13S
GREENVILLE     CLOUDY    56  41  57 S22       30.09F
GRENADA        PTSUNNY   54  39  58 SW6       30.11F
OLIVE BRANCH   CLOUDY    54  43  66 S20       30.03F
OXFORD         MOCLDY    50  39  66 S6        30.10S
TUNICA         CLOUDY    54  41  62 S17       30.05F
$$

MSZ003>006-009-014>017-022>024-029>033-037>039-291100-
NORTHEAST MISSISSIPPI

CITY           SKY/WX    TMP DP  RH WIND       PRES   REMARKS
COLUMBUS AFB   CLEAR     43  31  63 S10       30.18F
CORINTH        FAIR      48  32  53 S10G17    30.09S
GOLDN TRIANGLE CLEAR     43  30  61 SE9       30.18S
STARKVILLE     FAIR      43  34  70 S7        30.17F
TUPELO         PTCLDY    44  32  62 S10       30.12F
$$

MSZ040-058-291100-
CENTRAL MISSISSIPPI

CITY           SKY/WX    TMP DP  RH WIND       PRES   REMARKS
JACKSON INTL   CLEAR     45  36  70 S7        30.18S
JACKSON HAWKNS NOT AVBL
MERIDIAN KEY   CLEAR     39  33  79 S9        30.21S WCI  33
MERIDIAN NAS   CLEAR     44  33  65 S5        30.21S
RAYMOND        FAIR      45  39  81 MISG      30.18F
VICKSBURG      CLEAR     50  41  71 S10       30.16F
$$

MSZ059>079-291100-
SOUTH MISSISSIPPI

CITY           SKY/WX    TMP DP  RH WIND       PRES   REMARKS
BROOKHAVEN       N/A     46  45  93 S8        30.20F
HATTIESBURG    CLEAR     39  36  89 CALM      30.24R
MCCOMB         CLEAR     38  36  92 SE6       30.20F WCI  33
NATCHEZ        CLEAR     52  43  71 S5        30.19S
PINE BELT      CLEAR     36  32  87 CALM      30.24R
$$

MSZ080>082-291100-
COASTAL MISSISSIPPI

CITY           SKY/WX    TMP DP  RH WIND       PRES   REMARKS
BILOXI         CLEAR     46  46 100 E2        30.23F FOG
PASCAGOULA     CLEAR     37  36  96 CALM      30.25F
GULFPORT       CLEAR     41  39  93 CALM      30.24S
$$



USA.gov is the U.S. government's official web portal to all federal, state and local government web resources and services.